Simultaneous Nadir Overpasses (SNOs) Predictions

Prediction of SNOs between GOES-17 and NOAA-20 Satellite Orbit:

Table of predicted SNOs for the next 14.0 days since TLE Epoch: 5/18/2024
Index Date Time (GOES-17) GOES-17 Lat,Lon NOAA-20 Lat,Lon Distance(km) Time Diff (sec)
1 05/18/2024 08:27:38 -0.01,-104.71 0.14,-105.30 67.99 80
2 05/19/2024 08:06:12 -0.01,-104.71 -0.89,-100.77 449.28 80
3 05/20/2024 20:28:04 0.01,-104.71 -0.32,-106.05 154.53 80
4 05/21/2024 20:11:57 0.02,-104.71 0.72,-101.52 362.74 80
5 05/23/2024 08:33:43 -0.02,-104.71 0.42,-106.79 236.26 80
6 05/24/2024 08:12:15 -0.02,-104.71 -0.56,-102.25 280.71 80
7 05/25/2024 20:34:08 0.03,-104.70 -0.63,-107.54 323.81 80
8 05/26/2024 20:18:01 0.02,-104.70 0.42,-103.00 193.18 80
9 05/28/2024 08:37:05 -0.03,-104.70 0.76,-108.26 406.02 80
10 05/29/2024 08:20:58 -0.02,-104.70 -0.23,-103.72 111.02 80
11 05/30/2024 20:40:10 0.03,-104.68 -0.94,-109.01 493.36 80
12 05/31/2024 20:24:03 0.02,-104.68 0.07,-104.47 23.94 80
